Hat Yai, Thailand

3:49 PM +07 on November 25, 2017 (GMT +0700)
Hat Yai International

Weather History for VTSS - August, 2013

Change the Weather History Date:

Tuesday, August 6, 2013

  Actual Average Record
Temperature  
Mean Temperature 79 °F -  
Max Temperature 86 °F 88 °F 95 °F (2005)
Min Temperature 72 °F 74 °F 71 °F (2016)
Cooling Degree Days 14    
Growing Degree Days 29 (Base 50)    
Moisture  
Dew Point 72 °F    
Average Humidity 80    
Maximum Humidity 94    
Minimum Humidity 59    
Precipitation  
Precipitation 0.00 in - - ()
Sea Level Pressure  
Sea Level Pressure 29.82 in    
Wind  
Wind Speed 4 mph ()    
Max Wind Speed 12 mph    
Max Gust Speed -    
Visibility 5.4 miles    
Events Fog , Rain    
Averages and records for this station are not official NWS values.
T = Trace of Precipitation, MM = Missing Value Source: Averaged Metar Reports

Daily Weather History Graph

Daily Weather History Graph

Search for Another Location

Airport or City:

Trip Planner

Search our weather history database for the weather conditions in past years. The results will help you decide how hot, cold, wet, or windy it might be!

Date:

Astronomy

Aug. 06, 2013 Rise Set
Actual Time 6:12 AM +07 6:35 PM +07
Civil Twilight 5:50 AM +07 6:57 PM +07
Nautical Twilight 5:25 AM +07 7:23 PM +07
Astronomical Twilight 4:59 AM +07 7:48 PM +07
Moon 5:27 AM +07 (8/6) 6:04 PM +07 (8/6)
Length of Visible Light 13h 07m
Length of Day
12h 23m
Waning Crescent, 0% of the Moon is Illuminated
Aug 6
Waning Crescent
Aug 7
New
Aug 14
First Quarter
Aug 21
Full
Aug 28
Last Quarter

Hourly Weather History & Observations

Time (+07) Temp. Heat Index Dew Point Humidity Pressure Visibility Wind Dir Wind Speed Gust Speed Precip Events Conditions
12:00 AM 73.4 °F - 71.6 °F 94% 29.86 in 1.2 mi Calm Calm - N/A   Mostly Cloudy
12:30 AM 73.4 °F - 71.6 °F 94% 29.86 in 0.5 mi WSW 3.5 mph - N/A Fog Fog
1:00 AM 74 °F - 72 °F 91% 29.86 in 0 mi West 4.6 mph - - Fog Partial Fog
1:00 AM 73.4 °F - 71.6 °F 94% 29.86 in 0.5 mi West 4.6 mph - N/A Fog Fog
1:30 AM 73.4 °F - 71.6 °F 94% 29.83 in 1.2 mi Calm Calm - N/A   Mostly Cloudy
2:00 AM 73.4 °F - 71.6 °F 94% 29.83 in 1.2 mi Calm Calm - N/A   Mostly Cloudy
2:30 AM 75.2 °F - 73.4 °F 94% 29.83 in 2.5 mi SW 4.6 mph - N/A   Mostly Cloudy
3:00 AM 73.4 °F - 71.6 °F 94% 29.80 in 4.3 mi West 3.5 mph - N/A Rain Light Rain
3:30 AM 73.4 °F - 71.6 °F 94% 29.80 in 5.6 mi Calm Calm - N/A Rain Light Rain
4:00 AM 73.4 °F - 71.6 °F 94% 29.80 in 6.2 mi ESE 3.5 mph - N/A   Mostly Cloudy
4:30 AM 73.4 °F - 71.6 °F 94% 29.80 in 6.2 mi Calm Calm - N/A   Mostly Cloudy
5:00 AM 73.4 °F - 71.6 °F 94% 29.80 in 6.2 mi Calm Calm - N/A   Mostly Cloudy
5:30 AM 73.4 °F - 71.6 °F 94% 29.83 in 6.2 mi SSE 3.5 mph - N/A   Mostly Cloudy
6:00 AM 73.4 °F - 71.6 °F 94% 29.83 in 6.2 mi SSE 3.5 mph - N/A   Mostly Cloudy
6:30 AM 73.4 °F - 71.6 °F 94% 29.83 in 6.2 mi South 4.6 mph - N/A   Mostly Cloudy
7:00 AM 74 °F - 72 °F 91% 29.86 in 6 mi South 4.6 mph - - Rain Light Rain
7:00 AM 73.4 °F - 71.6 °F 94% 29.83 in 5.6 mi South 4.6 mph - N/A Rain Light Rain
7:30 AM 75.2 °F - 71.6 °F 89% 29.83 in 6.2 mi South 4.6 mph - N/A   Mostly Cloudy
8:00 AM 75.2 °F - 71.6 °F 89% 29.86 in 6.2 mi South 4.6 mph - N/A   Mostly Cloudy
8:30 AM 77.0 °F - 73.4 °F 89% 29.86 in 6.2 mi South 4.6 mph - N/A   Mostly Cloudy
9:00 AM 77.0 °F - 71.6 °F 83% 29.86 in 6.2 mi South 4.6 mph - N/A   Mostly Cloudy
9:30 AM 78.8 °F - 71.6 °F 78% 29.86 in 6.2 mi SW 10.4 mph - N/A   Mostly Cloudy
10:00 AM 78.8 °F - 71.6 °F 78% 29.86 in 6.2 mi SSW 6.9 mph - N/A   Mostly Cloudy
10:30 AM 78.8 °F - 71.6 °F 78% 29.86 in 6.2 mi SW 9.2 mph - N/A   Mostly Cloudy
11:00 AM 80.6 °F 85.4 °F 73.4 °F 79% 29.86 in 6.2 mi SSW 5.8 mph - N/A   Mostly Cloudy
11:30 AM 82.4 °F 88.2 °F 73.4 °F 74% 29.86 in 6.2 mi SW 9.2 mph - N/A   Mostly Cloudy
12:00 PM 84.2 °F 90.9 °F 73.4 °F 70% 29.83 in 6.2 mi SW 10.4 mph - N/A   Mostly Cloudy
12:30 PM 86.0 °F 91.8 °F 71.6 °F 62% 29.83 in 6.2 mi WSW 10.4 mph - N/A   Mostly Cloudy
1:00 PM 84 °F - 72 °F 59% 29.83 in 6 mi WSW 11.5 mph - -   Partly Cloudy
1:00 PM 84.2 °F 90.9 °F 73.4 °F 70% 29.83 in 6.2 mi WSW 11.5 mph - N/A   Mostly Cloudy
1:30 PM 84.2 °F 89.6 °F 71.6 °F 66% 29.80 in 6.2 mi WSW 11.5 mph - N/A   Mostly Cloudy
2:00 PM 84.2 °F 88.4 °F 69.8 °F 62% 29.80 in 6.2 mi SW 8.1 mph - N/A   Mostly Cloudy
2:30 PM 84.2 °F 89.6 °F 71.6 °F 66% 29.80 in 6.2 mi SW 10.4 mph - N/A   Mostly Cloudy
3:00 PM 84.2 °F 89.6 °F 71.6 °F 66% 29.77 in 6.2 mi SW 9.2 mph - N/A   Mostly Cloudy
3:30 PM 82.4 °F 88.2 °F 73.4 °F 74% 29.77 in 6.2 mi SW 5.8 mph - N/A   Mostly Cloudy
4:00 PM 84.2 °F 89.6 °F 71.6 °F 66% 29.77 in 6.2 mi SW 6.9 mph - N/A   Mostly Cloudy
4:30 PM 84.2 °F 88.4 °F 69.8 °F 62% 29.74 in 6.2 mi SW 9.2 mph - N/A   Mostly Cloudy
5:00 PM 84.2 °F 88.4 °F 69.8 °F 62% 29.77 in 6.2 mi SW 5.8 mph - N/A   Mostly Cloudy
5:30 PM 82.4 °F 86.3 °F 69.8 °F 66% 29.77 in 6.2 mi WSW 5.8 mph - N/A   Mostly Cloudy
6:00 PM 80.6 °F 84.6 °F 71.6 °F 74% 29.77 in 6.2 mi SW 5.8 mph - N/A   Mostly Cloudy
6:30 PM 80.6 °F 84.6 °F 71.6 °F 74% 29.80 in 6.2 mi SW 3.5 mph - N/A   Mostly Cloudy
7:00 PM 79 °F - 71 °F 69% 29.80 in 6 mi SSW 2.3 mph - -   Overcast
7:00 PM 80.6 °F 84.6 °F 71.6 °F 74% 29.80 in 6.2 mi SSW 2.3 mph - N/A   Mostly Cloudy
7:30 PM 78.8 °F - 71.6 °F 78% 29.80 in 6.2 mi SW 5.8 mph - N/A Rain Light Rain
8:00 PM 78.8 °F - 69.8 °F 74% 29.80 in 6.2 mi SSW 3.5 mph - N/A   Mostly Cloudy
8:30 PM 78.8 °F - 69.8 °F 74% 29.80 in 6.2 mi SW 6.9 mph - N/A   Mostly Cloudy
9:00 PM 78.8 °F - 69.8 °F 74% 29.83 in 6.2 mi SW 4.6 mph - N/A   Mostly Cloudy
9:30 PM 78.8 °F - 69.8 °F 74% 29.86 in 6.2 mi WSW 4.6 mph - N/A   Mostly Cloudy
10:00 PM 77.0 °F - 69.8 °F 78% 29.86 in 6.2 mi West 3.5 mph - N/A   Mostly Cloudy
10:30 PM 75.2 °F - 71.6 °F 89% 29.86 in 6.2 mi SW 4.6 mph - N/A   Mostly Cloudy
11:00 PM 77.0 °F - 71.6 °F 83% 29.86 in 6.2 mi Calm Calm - N/A   Mostly Cloudy
11:30 PM 75.2 °F - 71.6 °F 89% 29.83 in 6.2 mi Calm Calm - N/A   Mostly Cloudy